• In Romania
  • List of Countries
  • For 7 days
  • Water Temperature
  • Satellite Maps
  • Weather Map
  • Weather Widgets
  • user-avatar
    Login

    Hourly Weather Aleksandrinskiy

    Today, 21 July, Saturday

    Time Temperature Precipitation Wind Pressure Humidity
    00:00 +20°C° 0.3 mm 2 mps 731 mmHg 92%
    01:00 +19°C° 0.5 mm 2 mps 731 mmHg 92%
    02:00 +19°C° 0.5 mm 2 mps 731 mmHg 93%
    03:00 +19°C° 0 mm 2 mps 731 mmHg 94%
    04:00 +19°C° 0.6 mm 2 mps 732 mmHg 94%
    05:00 +19°C° 0.6 mm 2 mps 732 mmHg 94%
    06:00 +20°C° 0.6 mm 2 mps 732 mmHg 94%
    07:00 +21°C° 0.6 mm 2 mps 732 mmHg 90%
    08:00 +23°C° 0.6 mm 2 mps 732 mmHg 87%
    09:00 +22°C° 0 mm 3 mps 732 mmHg 86%
    10:00 +24°C° 1.5 mm 3 mps 732 mmHg 83%
    11:00 +25°C° 1.5 mm 3 mps 732 mmHg 80%
    12:00 +26°C° 1.5 mm 4 mps 732 mmHg 77%
    13:00 +26°C° 0.9 mm 4 mps 732 mmHg 76%
    14:00 +26°C° 0.9 mm 4 mps 732 mmHg 75%
    15:00 +27°C° 0.9 mm 4 mps 732 mmHg 74%
    16:00 +26°C° 0.9 mm 4 mps 732 mmHg 77%
    17:00 +26°C° 0.9 mm 4 mps 732 mmHg 80%
    18:00 +26°C° 0.9 mm 3 mps 732 mmHg 83%
    19:00 +24°C° 0.3 mm 3 mps 732 mmHg 86%
    20:00 +22°C° 0.3 mm 3 mps 732 mmHg 89%
    21:00 +21°C° 0.3 mm 3 mps 732 mmHg 92%
    22:00 +21°C° 0 mm 3 mps 732 mmHg 93%
    23:00 +20°C° 0 mm 3 mps 732 mmHg 95%

    Tomorrow, 22 July, Sunday

    Time Temperature Precipitation Wind Pressure Humidity
    00:00 +20°C° 0 mm 3 mps 732 mmHg 96%
    01:00 +20°C° 0 mm 4 mps 732 mmHg 96%
    02:00 +19°C° 0 mm 4 mps 732 mmHg 97%
    03:00 +19°C° 0 mm 4 mps 732 mmHg 97%
    04:00 +19°C° 0.1 mm 4 mps 732 mmHg 97%
    05:00 +19°C° 0.1 mm 5 mps 732 mmHg 97%
    06:00 +19°C° 0.1 mm 5 mps 732 mmHg 96%
    07:00 +20°C° 0 mm 5 mps 732 mmHg 95%
    08:00 +20°C° 0 mm 5 mps 733 mmHg 94%
    09:00 +20°C° 0 mm 5 mps 733 mmHg 93%
    10:00 +20°C° 0.1 mm 5 mps 733 mmHg 92%
    11:00 +21°C° 0.1 mm 5 mps 733 mmHg 91%
    12:00 +21°C° 0.1 mm 6 mps 733 mmHg 90%
    13:00 +21°C° 0.1 mm 6 mps 733 mmHg 89%
    14:00 +21°C° 0.1 mm 5 mps 733 mmHg 89%
    15:00 +21°C° 0.1 mm 5 mps 733 mmHg 88%
    16:00 +21°C° 0.1 mm 5 mps 733 mmHg 88%
    17:00 +21°C° 0.1 mm 5 mps 733 mmHg 88%
    18:00 +21°C° 0.1 mm 5 mps 733 mmHg 88%
    19:00 +20°C° 0 mm 5 mps 733 mmHg 89%
    20:00 +20°C° 0 mm 5 mps 733 mmHg 89%
    21:00 +19°C° 0 mm 6 mps 733 mmHg 90%
    22:00 +19°C° 0 mm 5 mps 733 mmHg 90%
    23:00 +17°C° 0 mm 5 mps 733 mmHg 91%

    Day after tomorrow, 23 July, Monday

    Time Temperature Precipitation Wind Pressure Humidity
    00:00 +17°C° 0 mm 5 mps 733 mmHg 91%
    01:00 +17°C° 0.1 mm 5 mps 733 mmHg 92%
    02:00 +17°C° 0.1 mm 5 mps 733 mmHg 93%
    03:00 +17°C° 0.1 mm 5 mps 733 mmHg 93%
    04:00 +17°C° 0 mm 5 mps 733 mmHg 94%
    05:00 +17°C° 0 mm 5 mps 733 mmHg 94%
    06:00 +17°C° 0 mm 5 mps 733 mmHg 94%
    07:00 +17°C° 0.1 mm 5 mps 733 mmHg 94%
    08:00 +17°C° 0.1 mm 5 mps 733 mmHg 94%
    09:00 +17°C° 0.1 mm 5 mps 733 mmHg 94%
    10:00 +17°C° 0.1 mm 5 mps 733 mmHg 92%
    11:00 +19°C° 0.1 mm 5 mps 733 mmHg 91%
    12:00 +19°C° 0.1 mm 5 mps 734 mmHg 90%
    13:00 +20°C° 0 mm 5 mps 734 mmHg 89%
    14:00 +20°C° 0 mm 5 mps 733 mmHg 88%
    15:00 +21°C° 0 mm 5 mps 733 mmHg 87%
    16:00 +21°C° 0.1 mm 5 mps 733 mmHg 87%
    17:00 +22°C° 0.1 mm 5 mps 733 mmHg 86%
    18:00 +22°C° 0.1 mm 5 mps 733 mmHg 85%
    19:00 +21°C° 0.6 mm 5 mps 733 mmHg 88%
    20:00 +21°C° 0.6 mm 5 mps 734 mmHg 90%
    21:00 +20°C° 0.6 mm 5 mps 734 mmHg 93%
    22:00 +20°C° 0.8 mm 5 mps 734 mmHg 94%
    23:00 +19°C° 0.8 mm 5 mps 734 mmHg 95%

    24 July, Tuesday

    Time Temperature Precipitation Wind Pressure Humidity
    00:00 +19°C° 0.8 mm 5 mps 734 mmHg 96%
    01:00 +19°C° 0.2 mm 5 mps 734 mmHg 96%
    02:00 +19°C° 0.2 mm 5 mps 734 mmHg 96%
    03:00 +19°C° 0.2 mm 5 mps 734 mmHg 96%
    04:00 +19°C° 0.2 mm 5 mps 734 mmHg 96%
    05:00 +19°C° 0.2 mm 5 mps 735 mmHg 96%
    06:00 +19°C° 0.2 mm 5 mps 735 mmHg 96%
    07:00 +19°C° 0.2 mm 5 mps 735 mmHg 95%
    08:00 +20°C° 0.2 mm 5 mps 735 mmHg 94%
    09:00 +20°C° 0.2 mm 5 mps 735 mmHg 93%
    10:00 +21°C° 0.3 mm 5 mps 736 mmHg 90%
    11:00 +22°C° 0.3 mm 5 mps 736 mmHg 87%
    12:00 +23°C° 0.3 mm 5 mps 736 mmHg 85%
    13:00 +25°C° 0.7 mm 5 mps 736 mmHg 82%
    14:00 +25°C° 0.7 mm 5 mps 736 mmHg 80%
    15:00 +26°C° 0.7 mm 5 mps 736 mmHg 78%
    16:00 +25°C° 0.4 mm 5 mps 737 mmHg 81%
    17:00 +25°C° 0.4 mm 4 mps 737 mmHg 83%
    18:00 +23°C° 0.4 mm 4 mps 737 mmHg 85%
    19:00 +22°C° 0.3 mm 4 mps 737 mmHg 87%
    20:00 +21°C° 0.3 mm 4 mps 737 mmHg 89%
    21:00 +20°C° 0.3 mm 4 mps 738 mmHg 91%
    22:00 +20°C° 0.1 mm 4 mps 738 mmHg 91%
    23:00 +19°C° 0.1 mm 4 mps 738 mmHg 90%

    25 July, Wednesday

    Time Temperature Precipitation Wind Pressure Humidity
    00:00 +19°C° 0.1 mm 4 mps 738 mmHg 89%
    01:00 +17°C° 0 mm 5 mps 738 mmHg 89%
    02:00 +17°C° 0 mm 5 mps 738 mmHg 88%
    03:00 +17°C° 0 mm 5 mps 738 mmHg 87%
    04:00 +17°C° 0 mm 5 mps 738 mmHg 87%
    05:00 +17°C° 0 mm 5 mps 738 mmHg 86%
    06:00 +17°C° 0 mm 5 mps 739 mmHg 86%
    07:00 +19°C° 0 mm 5 mps 739 mmHg 83%
    08:00 +19°C° 0 mm 5 mps 739 mmHg 80%
    09:00 +20°C° 0 mm 6 mps 740 mmHg 77%
    10:00 +20°C° 0 mm 6 mps 740 mmHg 76%
    11:00 +21°C° 0 mm 6 mps 740 mmHg 74%
    12:00 +21°C° 0 mm 6 mps 740 mmHg 72%
    13:00 +22°C° 0 mm 6 mps 740 mmHg 70%
    14:00 +23°C° 0 mm 6 mps 740 mmHg 67%
    15:00 +24°C° 0 mm 6 mps 740 mmHg 65%
    16:00 +23°C° 0 mm 6 mps 740 mmHg 67%
    17:00 +23°C° 0 mm 5 mps 740 mmHg 68%
    18:00 +22°C° 0 mm 5 mps 740 mmHg 70%
    19:00 +21°C° 0 mm 4 mps 741 mmHg 73%
    20:00 +20°C° 0 mm 4 mps 741 mmHg 77%
    21:00 +20°C° 0 mm 4 mps 741 mmHg 80%
    22:00 +19°C° 0 mm 4 mps 741 mmHg 83%
    23:00 +19°C° 0 mm 3 mps 741 mmHg 86%

    26 July, Thursday

    Time Temperature Precipitation Wind Pressure Humidity
    00:00 +19°C° 0 mm 3 mps 741 mmHg 90%
    01:00 +18°C° 0 mm 3 mps 741 mmHg 90%
    02:00 +18°C° 0 mm 3 mps 741 mmHg 90%
    03:00 +18°C° 0 mm 3 mps 741 mmHg 91%
    04:00 +18°C° 0 mm 4 mps 741 mmHg 90%
    05:00 +18°C° 0 mm 4 mps 741 mmHg 90%
    06:00 +19°C° 0 mm 4 mps 742 mmHg 90%
    07:00 +20°C° 0 mm 5 mps 742 mmHg 86%
    08:00 +21°C° 0 mm 5 mps 742 mmHg 82%
    09:00 +22°C° 0 mm 5 mps 742 mmHg 78%
    10:00 +23°C° 0 mm 5 mps 742 mmHg 75%
    11:00 +25°C° 0 mm 5 mps 742 mmHg 72%
    12:00 +26°C° 0 mm 5 mps 742 mmHg 69%
    13:00 +27°C° 0 mm 5 mps 742 mmHg 68%
    14:00 +28°C° 0 mm 6 mps 742 mmHg 66%
    15:00 +29°C° 0 mm 6 mps 743 mmHg 64%
    16:00 +28°C° 0 mm 5 mps 743 mmHg 67%
    17:00 +28°C° 0 mm 5 mps 743 mmHg 69%
    18:00 +28°C° 0 mm 4 mps 743 mmHg 71%
    19:00 +26°C° 0 mm 4 mps 743 mmHg 73%
    20:00 +25°C° 0 mm 4 mps 743 mmHg 75%
    21:00 +22°C° 0 mm 4 mps 743 mmHg 78%
    22:00 +22°C° 0 mm 4 mps 743 mmHg 78%
    23:00 +21°C° 0 mm 4 mps 744 mmHg 79%
    Show more